Theta_e
316 317 317 317 316 316 316 317 317 317 316 316 317 317 317 317 317 317 318 319 319 319 319 320 321 323 323 314 314 347 358 355 346 331 327 321 320 319 317 319 318 317 319 320 320 322 326
316 316 316 316 316 316 316 316 316 316 316 316 316 316 316 317 317 317 318 318 318 318 319 320 322 322 318 309 325 342 342 341 335 328 323 323 319 318 316 317 317 319 319 319 321 323 327
315 315 315 315 315 315 315 316 316 315 315 315 315 316 316 316 316 317 317 317 317 318 319 321 323 324 314 312 326 337 339 336 333 327 320 319 318 316 318 317 319 318 315 319 320 321 321
315 315 315 315 315 315 315 315 315 315 315 315 315 315 315 315 315 316 316 316 317 319 322 325 324 324 311 318 323 326 329 326 326 327 320 321 321 319 317 319 317 314 317 312 318 319 321
314 314 314 314 314 314 314 314 314 314 314 314 314 314 315 315 315 315 314 314 317 320 324 324 325 317 310 318 316 321 325 320 322 322 322 320 320 317 316 312 313 315 309 311 313 317 318
313 313 313 314 313 313 313 314 313 313 313 314 314 314 314 314 314 314 313 315 321 319 325 327 324 315 315 312 318 321 324 323 319 319 317 316 316 313 313 311 304 308 310 311 310 314 316
313 313 313 313 313 313 313 313 313 313 313 313 313 314 313 313 313 312 314 319 316 316 315 313 315 313 312 317 321 319 321 320 320 317 311 315 310 308 310 312 312 310 309 308 312 315 312
313 313 313 313 312 312 312 312 312 312 312 312 313 313 313 313 312 311 314 313 307 308 306 314 313 314 317 318 312 317 321 315 314 309 312 310 307 312 312 312 310 310 308 308 311 313 313
313 313 313 312 312 312 312 312 312 312 312 313 313 313 312 311 311 312 310 312 313 312 308 311 314 312 314 315 312 313 318 316 312 310 310 308 310 312 310 310 308 309 308 308 308 312 314
313 313 313 312 312 312 311 311 311 312 312 312 312 312 311 308 309 309 311 313 312 313 303 306 307 312 312 314 309 317 319 316 313 309 310 310 312 309 308 307 309 306 311 309 308 307 305
313 313 313 312 311 312 311 311 311 311 312 312 312 312 311 309 308 307 310 312 313 312 292 307 309 315 314 311 311 312 319 316 310 310 311 309 308 307 306 307 310 308 311 310 310 308 309
314 313 313 312 311 312 311 311 311 311 311 311 311 311 310 310 310 310 312 312 313 300 292 302 308 307 308 310 310 312 312 316 316 311 312 311 313 311 310 311 311 312 310 311 310 309 303
315 313 313 312 311 311 311 311 311 311 311 311 310 309 308 309 306 311 312 310 300 295 304 301 303 307 307 307 308 309 309 308 306 304 305 309 309 311 312 308 312 310 308 302 301 301 300
316 314 313 312 311 311 311 311 311 311 311 310 308 307 311 311 316 313 309 304 295 300 301 305 304 306 304 307 307 307 307 306 310 310 306 304 302 309 312 309 308 309 308 303 297 298 301
316 315 313 312 312 311 311 311 311 310 310 309 307 310 311 317 315 313 304 297 298 302 303 302 304 302 304 306 305 306 306 306 309 310 305 304 304 310 310 312 311 308 305 311 306 306 301
317 316 314 312 312 311 311 311 311 310 309 308 305 307 310 316 316 309 300 297 303 305 305 304 299 303 301 304 304 306 306 308 308 311 313 309 303 308 310 312 311 310 313 304 305 299 297
317 316 314 313 312 311 311 311 311 310 309 307 307 302 313 317 313 303 296 299 303 306 306 302 302 302 303 302 304 305 305 309 311 309 312 310 307 306 309 308 307 307 306 308 308 307 300
317 316 314 312 312 311 311 311 310 309 307 305 304 298 314 313 300 300 297 301 300 304 307 305 305 303 302 303 303 304 305 309 312 313 306 310 308 303 305 310 312 311 309 310 303 304 306
317 316 314 313 312 310 311 311 310 308 307 304 299 302 314 311 297 298 300 300 302 303 304 303 303 304 305 303 301 305 306 310 312 312 311 311 306 301 303 307 309 307 309 310 311 312 306
317 316 314 313 312 311 310 311 310 309 308 305 301 301 309 306 306 302 300 299 299 304 303 304 304 306 304 303 306 304 305 308 310 314 317 314 310 307 301 305 308 306 307 309 310 305 305
317 316 314 313 311 311 310 310 310 309 308 306 304 304 308 304 302 301 303 303 302 301 306 306 304 303 303 301 303 303 307 308 309 311 316 316 309 309 308 308 307 308 307 308 307 309 307
317 316 315 313 312 311 309 310 310 309 306 308 305 306 310 307 307 304 301 303 303 305 306 304 303 305 305 303 305 303 306 308 307 311 313 315 309 311 308 307 308 306 308 310 310 310 311
317 316 315 314 312 311 310 309 309 307 306 301 305 310 308 306 306 303 305 304 304 307 308 308 307 306 305 306 309 310 313 314 314 311 308 309 310 308 303 308 307 303 308 309 311 313 314
317 316 315 314 312 311 310 309 308 307 305 304 303 302 305 303 306 304 304 306 305 306 306 309 312 309 313 316 315 314 313 312 312 313 314 309 310 309 303 307 298 313 320 317 312 318 320
316 315 315 314 312 311 309 309 309 307 306 307 306 302 306 301 303 303 304 304 308 309 308 308 312 316 318 314 309 307 305 306 307 309 311 313 310 304 301 301 305 311 318 317 315 315 321
316 315 315 314 312 312 309 309 309 308 307 306 305 306 305 301 302 302 302 304 304 306 309 311 314 320 316 312 307 302 298 302 302 305 312 310 313 305 303 298 296 313 318 321 322 312 322
315 315 314 314 313 312 311 310 310 308 307 306 305 306 306 302 304 304 304 303 305 306 307 307 311 312 317 308 304 302 301 305 300 300 303 305 305 301 301 300 305 316 318 322 310 311 321
315 314 314 313 313 312 311 311 310 308 307 305 304 307 304 304 305 306 305 302 303 306 305 309 309 313 309 304 301 302 300 305 303 308 306 304 303 301 303 300 298 318 317 314 317 321 320
314 314 313 313 313 312 311 311 310 308 307 304 300 309 310 304 306 311 310 310 308 307 304 309 312 312 311 309 310 311 305 309 306 300 314 305 312 310 310 310 317 320 319 320 320 319 321
Wind_Speed
15 15 16 16 16 16 17 17 18 18 19 19 20 20 21 21 22 22 22 21 20 20 19 19 16 15 10 7 2 7 15 18 22 11 14 10 9 8 12 6 7 11 13 14 15 15 8
15 16 16 16 16 16 17 17 18 18 19 19 20 20 21 22 22 23 22 22 21 20 20 18 15 12 7 10 7 12 15 20 14 13 12 10 7 7 10 10 9 11 15 19 11 7 3
15 15 15 16 16 16 17 17 17 18 19 20 21 21 21 22 24 24 24 24 23 21 20 16 10 6 8 10 4 10 16 17 13 13 10 8 6 9 3 9 5 10 14 17 3 5 7
15 15 15 15 16 16 16 17 18 18 19 19 21 21 22 23 24 25 26 25 23 21 13 9 6 6 8 4 7 9 13 11 11 13 8 3 6 9 9 6 11 12 15 15 9 3 3
13 15 16 17 17 17 17 17 17 18 19 19 20 22 23 24 25 26 27 27 25 10 4 5 7 6 8 6 8 12 14 10 14 10 7 3 7 8 6 13 15 14 14 15 11 1 10
13 13 14 15 16 17 17 17 18 19 19 19 20 21 23 24 25 26 30 26 5 6 6 5 4 7 8 3 4 5 9 11 11 11 8 9 9 11 11 11 14 16 12 13 10 3 12
12 13 14 15 16 17 17 18 18 19 19 19 20 21 23 25 26 26 18 5 7 8 9 12 2 8 2 1 5 9 9 11 11 13 15 12 11 13 14 10 10 9 11 18 15 13 10
11 12 13 14 15 17 17 18 19 19 20 20 20 21 22 25 27 25 10 5 6 6 11 11 16 18 17 8 6 10 9 12 12 17 16 9 16 12 5 7 10 11 13 16 14 7 9
10 11 12 13 14 15 17 18 19 19 20 20 20 20 22 26 27 11 7 3 6 5 9 8 12 14 13 13 14 17 16 15 14 16 16 18 10 4 8 13 13 15 15 13 15 7 13
9 10 11 12 14 15 16 18 19 20 20 20 20 20 20 28 8 9 2 2 9 4 8 9 9 8 8 10 10 18 18 15 13 16 16 13 14 12 15 14 14 15 8 6 12 11 15
9 9 9 11 12 14 15 17 19 20 20 20 19 20 18 12 11 6 6 10 8 6 8 5 10 5 5 14 3 11 16 19 20 17 10 15 10 11 17 17 11 12 3 8 12 13 17
9 9 10 11 12 14 15 16 18 19 20 22 21 18 19 4 6 10 10 11 6 9 11 4 5 10 12 14 11 6 10 13 15 22 15 20 4 8 11 9 10 5 10 11 9 13 12
9 9 9 10 11 13 14 15 17 18 20 23 24 21 14 5 4 6 10 6 8 12 4 9 7 9 9 12 15 15 15 18 15 16 17 19 18 15 10 14 12 10 12 10 10 11 12
10 9 9 8 9 12 13 14 16 18 20 23 26 26 4 7 4 7 6 8 13 10 19 4 4 8 11 7 12 15 18 19 23 22 16 20 18 20 16 21 15 17 16 12 10 11 8
11 10 8 8 8 9 12 15 16 18 20 23 28 4 5 2 4 6 8 15 12 14 4 8 10 10 10 7 6 10 18 19 18 20 20 14 15 5 8 17 18 15 11 12 11 9 9
13 11 9 7 8 9 11 13 16 19 21 23 8 6 3 2 6 8 10 18 13 3 8 6 11 3 8 4 8 8 13 10 11 15 20 11 10 10 10 8 6 13 5 11 10 15 12
14 12 9 8 8 8 10 12 15 18 22 21 6 6 7 3 8 7 11 16 16 7 7 5 3 5 6 3 6 6 6 7 5 9 12 14 11 9 10 13 14 10 13 11 12 6 10
14 12 11 9 8 7 8 10 12 15 22 9 5 5 5 3 7 6 12 9 4 11 13 11 7 8 8 9 8 5 6 4 3 6 10 16 11 15 13 5 4 6 9 15 12 14 11
15 14 12 10 8 7 7 8 10 12 12 8 7 5 5 3 6 9 10 10 11 12 12 10 12 7 9 9 6 5 2 4 4 5 6 8 9 12 15 8 7 12 13 12 10 7 11
15 14 12 10 7 7 7 7 9 10 9 6 5 4 5 5 5 7 4 10 12 9 13 14 16 13 12 11 11 8 5 4 1 2 3 5 4 12 12 10 7 18 15 14 14 11 13
15 15 13 11 8 8 6 6 8 10 12 6 4 1 4 1 8 9 8 9 10 9 9 6 11 18 16 15 14 13 13 6 6 6 3 4 6 5 5 3 5 7 13 16 17 18 10
16 16 14 12 10 8 5 4 6 10 10 6 5 4 4 9 6 8 5 9 11 9 9 10 12 10 14 17 15 11 12 7 4 5 2 1 2 4 8 4 4 8 7 8 13 6 9
16 16 15 12 11 9 6 3 4 8 10 4 3 3 5 3 6 6 3 5 7 8 7 13 10 10 11 13 17 5 6 5 3 2 1 3 2 6 8 2 6 10 4 7 6 2 6
14 17 16 14 13 10 7 3 1 3 6 4 3 5 5 6 5 4 6 12 12 8 11 7 7 6 6 8 4 6 7 4 4 2 3 2 3 3 6 4 12 9 5 3 3 4 3
13 17 16 15 14 11 9 6 2 1 1 5 3 5 4 7 7 8 8 10 12 3 5 5 4 5 7 6 7 7 6 5 3 1 2 3 5 5 8 10 3 7 4 2 4 8 6
13 17 17 16 14 13 10 8 4 1 2 6 4 4 5 6 3 7 9 7 7 6 6 3 2 6 5 4 5 7 6 5 7 7 2 4 4 7 4 11 14 11 4 3 3 7 8
12 16 17 16 15 14 11 9 6 3 3 6 3 5 5 6 3 7 4 8 7 6 4 3 8 6 5 4 3 2 2 5 3 4 3 3 4 9 10 9 3 5 3 2 10 6 7
12 16 18 16 15 14 12 10 7 4 2 5 3 3 6 5 10 8 9 9 8 3 6 7 2 2 4 4 3 1 4 3 3 3 5 7 6 7 7 7 12 7 5 5 6 3 8
11 16 18 17 16 14 13 11 8 5 3 4 3 1 3 6 8 11 16 20 20 16 9 3 2 3 3 4 2 1 5 3 4 6 4 5 5 6 5 7 4 5 9 5 6 7 8
Wind_Direction
25 22 22 20 19 15 11 9 5 1 357 354 350 346 342 337 332 329 325 320 318 315 311 309 314 313 295 259 268 98 144 157 169 203 192 203 225 260 272 302 283 251 301 309 305 318 322
21 19 17 16 14 13 10 7 3 359 355 352 348 344 339 334 329 326 321 317 314 312 308 308 308 307 261 272 102 136 153 168 191 206 216 227 250 275 283 283 276 327 305 298 307 318 102
16 15 14 12 12 11 8 5 3 358 354 350 347 343 337 333 328 323 319 316 313 311 306 302 290 261 259 269 137 149 161 184 200 218 227 226 266 244 310 258 302 284 290 296 176 357 19
8 8 8 9 8 7 5 2 358 357 354 351 346 340 335 330 326 322 317 313 311 307 299 285 220 237 267 118 165 183 190 191 211 221 254 268 242 264 258 293 249 260 273 269 105 303 59
3 2 2 2 2 2 0 359 356 354 352 350 346 340 334 330 326 321 316 312 305 293 286 154 223 254 266 127 211 215 199 216 197 206 210 199 225 258 201 240 247 231 260 271 288 315 305
357 356 355 358 358 357 356 356 353 351 350 349 344 340 334 329 325 322 317 297 282 262 215 237 259 247 207 199 147 164 192 228 199 176 180 212 221 233 218 238 245 257 250 254 259 294 299
349 349 351 352 352 351 351 352 350 349 348 345 344 340 334 328 324 322 323 286 225 189 207 258 358 278 205 280 211 205 176 189 210 211 222 202 240 227 241 241 309 304 278 276 280 283 273
344 342 345 347 348 348 348 346 345 345 344 342 343 338 335 328 323 317 283 338 58 335 298 250 252 257 265 282 273 216 179 201 201 217 214 206 235 252 259 260 245 249 261 270 278 310 241
335 338 340 342 343 343 343 343 342 341 339 338 338 337 335 327 319 294 325 72 351 309 255 263 226 250 233 197 237 237 193 214 220 226 209 237 253 74 227 233 237 245 257 275 281 250 261
324 330 334 335 338 340 340 340 338 337 335 334 334 335 338 328 290 345 283 45 318 249 263 226 212 219 185 221 241 226 203 215 217 237 224 246 260 240 238 245 249 253 250 283 284 261 248
303 315 323 328 333 334 337 337 335 332 331 329 331 331 332 325 313 281 15 316 314 230 262 131 169 88 158 200 19 188 207 206 234 218 219 224 215 226 232 235 228 255 355 296 289 260 257
287 302 314 323 328 333 336 334 331 329 328 324 324 325 328 203 249 272 313 310 241 230 232 206 176 194 195 207 219 136 189 232 232 242 215 257 185 218 229 208 223 275 270 248 250 253 228
267 281 299 316 325 327 329 331 326 326 328 320 318 314 299 296 295 349 310 245 218 243 120 205 204 194 218 230 219 217 192 197 204 211 222 227 221 223 232 236 215 236 249 248 216 215 244
250 263 284 298 314 317 324 326 326 328 323 320 316 310 189 237 235 306 238 221 233 226 235 86 270 253 241 189 222 212 222 225 214 219 233 220 231 215 217 231 235 212 244 257 261 254 246
234 243 260 284 297 308 317 325 329 327 324 323 310 279 254 159 224 235 237 216 224 246 321 273 255 264 232 196 271 218 220 224 217 220 227 230 240 139 234 214 220 221 234 263 274 253 278
230 233 242 264 281 302 317 321 329 329 328 329 309 294 252 93 174 206 231 236 232 319 302 253 261 244 251 204 239 205 198 222 227 213 228 214 249 185 169 191 200 262 233 211 228 264 265
222 222 235 249 271 295 313 323 330 332 331 324 267 287 62 176 199 210 235 231 244 214 282 301 291 274 262 308 291 262 200 124 214 187 220 226 229 176 174 205 214 181 227 239 288 306 287
215 216 223 230 251 277 302 324 332 337 336 302 295 267 88 180 217 214 239 225 309 256 226 259 278 272 280 313 302 270 233 15 20 191 197 216 227 235 209 181 309 253 242 204 225 205 241
210 211 219 224 234 266 294 327 332 341 1 313 305 288 137 282 244 211 226 251 244 256 239 239 242 248 273 286 281 261 250 99 16 202 179 169 222 224 231 204 201 235 228 233 239 285 263
209 207 213 218 226 253 288 324 333 335 346 289 287 272 149 210 284 293 261 236 238 219 260 256 257 258 256 256 252 280 253 159 88 17 328 198 228 248 252 230 223 204 224 215 219 233 231
206 206 209 207 220 244 276 325 331 332 342 277 225 58 5 245 226 250 283 301 273 251 227 251 235 240 245 245 254 242 250 220 181 143 203 261 244 232 265 285 235 247 230 206 216 233 267
209 205 205 202 217 225 246 309 336 337 343 258 306 334 339 281 275 259 214 265 271 281 241 245 235 251 225 231 238 239 243 250 251 161 194 191 212 270 230 200 227 226 229 216 220 232 248
211 203 199 205 204 216 219 265 353 348 327 302 2 259 280 282 238 251 210 291 320 315 258 250 283 279 260 246 241 304 297 344 38 326 92 319 310 252 236 179 238 217 174 229 171 210 292
217 200 195 196 201 209 207 224 342 35 341 307 360 286 268 277 264 283 320 308 298 305 282 312 310 264 31 302 235 234 238 236 236 69 321 206 260 284 275 253 231 75 47 306 285 87 16
217 200 192 194 199 202 203 217 222 110 252 299 321 278 294 282 322 272 333 310 304 311 266 247 9 350 314 251 203 195 197 212 166 14 232 266 253 246 255 240 192 165 64 2 287 130 42
214 197 191 191 197 200 198 213 210 190 199 281 289 278 281 304 81 333 315 312 325 342 239 237 112 326 303 284 204 212 183 200 183 144 86 154 237 251 185 253 247 67 69 16 293 180 34
212 193 188 189 195 197 200 206 206 199 188 289 304 246 272 275 293 334 341 331 333 315 280 17 346 357 332 317 310 270 131 339 248 251 170 204 239 232 219 244 134 53 7 181 222 70 17
205 191 187 187 190 194 196 201 206 203 167 279 308 262 283 284 290 271 287 294 322 341 334 22 298 140 270 265 253 184 267 87 262 7 313 276 263 218 238 245 230 23 157 294 19 357 352
207 194 185 185 186 188 193 196 201 197 163 254 272 225 246 259 301 308 278 274 268 273 286 248 5 222 343 273 234 210 198 211 333 250 154 239 327 338 312 41 61 56 77 86 18 351 360